Showing default

OPS 3674 (VELA 4), 837

Orbit data source: Space-Track

OPS 3674 (VELA 4), 837 is a payload satellite owned by USAF SSD (US) in HEO that was launched on Fri, 17 Jul 1964 UTC via an ATLAS AGENA D launch vehicle from the Air Force Eastern Test Range (AFETR). Payloads include a variety of satellites, spacecraft, and rockets equipped with specific instruments for various scientific and technological missions. These include communications satellites like Starlink; space stations such as the ISS; scientific satellites like the Hubble; Earth observation satellites from companies like Planet Labs, Umbra, and HawkEye 360; GPS; miniature CubeSats for education and research; and military/defense satellites.

Loading next visibility...
OPS 3674 (VELA 4) details
Identifier
837, 1964-040B
Orbit
HEO
Last TLE updatein 3 days
Origin
Flag of USUSAF SSD (US)
ManufacturerTRW
MissionDefense Early Warn
Bus & MotorVELA, BE-3
Mass~217 kg wet, 125 kg dry
Launch date (UTC)
1964-07-17 (60 years ago)
Launch vehicle
ATLAS AGENA D
Launch site
Air Force Eastern Test Range (AFETR)
Object type
Payload
Rocket body
Debris
Shape & HBRPoly, 1.4 m
Radar Cross Section2.240 m², Medium (>0.1 m² and < 1m²)

Expand to show TLE details & history

TLE from in 3 days
0 OPS 3674 (VELA 4)
1   837U 64040B   25017.17896740  .00000192  00000-0  00000+0 0  9990
2   837  48.6272 133.6245 4130363 261.9275   0.2712  0.24000403 53086
Epoch: 2025-01-17T04:17Z
Definitive object data (Epoch: 2025-01-17T04:17:42.783Z)
Latitude-48.44393°
Longitude-146.73013°
Altitude58,306.671 km
Speed2.947 km/s
True Right ascension02h 18m 10s
True Declination-48° 25' 30"
Sunlit
Object was in daylight at TLE epoch
Visualization TLE readout
Latitude36.4854°
Longitude-7.26203°
Altitude134,837.617 km
Speed1.415 km/s
Apparent Right ascension11h 40m 40s
Apparent Declination36° 11' 14"
Sunlit
Object is in daylight
Visualization observer readout
Local Sidereal Time09:49:17
Azimuth90.773° ESE
Elevation67.853°
Doppler factor1
Orbital elements
Apogee altitude148,174.611 km
Perigee altitude57,821.808 km
Semi-major axis109,376.347 km
Eccentricity0.4130363
Inclination48.6272°
RAAN133.6245°
Arg. of periapsis261.9275°
True anomaly0.71687°
Mean anomaly0.2712°
Eccentric anomaly0.46204°
Mean motion0.06 °/min
BSTARUnknown
Orbital period5999.91 mins
Loading maneuver chart data...
Loading historical data...
Loading historical data...
Loading historical data...
Loading historical data...
Loading historical data...
Loading historical data...
Loading historical data...
Other satellites on launch #40 in the year 1964 (1964-07-17 UTC)

OPS 3674 (VELA 4) Visibility forecast

Observer location: undefined°, undefined

Span
Click to sort rows by Start time (UTC) header in descending order
Start Az.
Max El. time (UTC)
Max El. Az.
Max El.
End time (UTC)
End Az.
668 mins2025-01-14 09:13:24.271Z90.784° ESE2025-01-14 11:18:24.271Z195.289° SSW44.993°2025-01-14 20:21:24.271Z320.447° NNW
194 mins2025-01-15 05:59:24.271Z35.201° NE2025-01-15 09:13:24.271Z52.014° ENE27.932°2025-01-15 09:13:24.271Z52.014° ENE
|